This is the latest recevied weather packets stored in our database for station/object GBTWP-2. If no packets are shown the sender has not sent any weather packets the latest 10 day(s).
| Time | Temp. | Humidity | Pressure | Rain* | Wind** | Luminosity | Snow |
|---|---|---|---|---|---|---|---|
| 1777778102 | 4.44° C | 66% | 1018 hPa | 0 mm | - | 0 W/m² | - |
| 1777777801 | 3.89° C | 69% | 1017.7 hPa | 0 mm | - | 0 W/m² | - |
| 1777777502 | 3.89° C | 68% | 1018 hPa | 0 mm | - | 0 W/m² | - |
| 1777777202 | 3.89° C | 72% | 1017.8 hPa | 0 mm | - | 0 W/m² | - |
| 1777776901 | 3.33° C | 70% | 1018 hPa | 0 mm | - | 0 W/m² | - |
| 1777776602 | 3.33° C | 74% | 1017.9 hPa | 0 mm | - | 0 W/m² | - |
| 1777776002 | 3.33° C | 75% | 1018 hPa | 0 mm | - | 0 W/m² | - |
| 1777775701 | 3.33° C | 76% | 1018 hPa | 0 mm | - | 0 W/m² | - |
| 1777775402 | 3.33° C | 76% | 1018 hPa | 0 mm | - | 0 W/m² | - |
| 1777774801 | 3.89° C | 70% | 1018.1 hPa | 0 mm | - | 0 W/m² | - |
| 1777774201 | 3.89° C | 74% | 1018.1 hPa | 0 mm | - | 0 W/m² | - |
| 1777773302 | 4.44° C | 70% | 1018 hPa | 0 mm | - | 0 W/m² | - |
| 1777773002 | 3.89° C | 69% | 1018 hPa | 0 mm | - | 0 W/m² | - |
| 1777772701 | 3.89° C | 70% | 1018 hPa | 0 mm | - | 0 W/m² | - |
| 1777771802 | 4.44° C | 67% | 1018 hPa | 0 mm | - | 0 W/m² | - |
| 1777771202 | 5° C | 64% | 1018 hPa | 0 mm | - | 0 W/m² | - |
| 1777770902 | 5.56° C | 62% | 1018 hPa | 0 mm | - | 0 W/m² | - |
| 1777770601 | 5.56° C | 61% | 1017.9 hPa | 0 mm | - | 0 W/m² | - |
| 1777770302 | 5.56° C | 59% | 1017.9 hPa | 0 mm | - | 0 W/m² | - |
| 1777770001 | 6.11° C | 57% | 1017.7 hPa | 0 mm | - | 0 W/m² | - |
| 1777769702 | 6.67° C | 56% | 1017.6 hPa | 0 mm | - | 0 W/m² | - |
| 1777769102 | 6.67° C | 51% | 1017.9 hPa | 0 mm | - | 1 W/m² | - |
| 1777768802 | 6.67° C | 52% | 1017.7 hPa | 0 mm | - | 1 W/m² | - |
| 1777768501 | 7.22° C | 53% | 1017.7 hPa | 0 mm | - | 2 W/m² | - |
| 1777768202 | 7.22° C | 50% | 1017.7 hPa | 0 mm | - | 3 W/m² | - |
* Rain latest hour (hover to see other rain measurements)
** Current wind speed in m/s (hover to see current wind gust speed)